Tracking 18945 objects as of 19-Jan-2018
HD Live streaming from Space Station
objects crossing your sky now

FENGYUN 1C DEB

Track FENGYUN 1C DEB now!
10-day predictions


NORAD ID: 30127
Int'l Code: 1999-025SG
Perigee: 773.2 km
Apogee: 953.9 km
Inclination: 98.2 °
Period: 102.1 minutes
Semi major axis: 7234 km
RCS: 0.0339 m2 (small)
Launch date: May 10, 1999
Source: People's Republic of China (PRC)
Launch site: Taiyaun Space Center, China (TSC)

Note: This is SATELLITE DEBRIS
aabbcc
Your satellite tracking list
Your tracking list is empty




NASA's NSSDC Master Catalog

Two Line Element Set (TLE):
1 30127U 99025SG  18018.01294444  .00000830  00000-0  45041-3 0  9992
2 30127  98.2171  46.9565 0124868 200.1167 159.5061 14.10864417563595
Source of the keplerian elements: AFSPC